Regional Weather Roundup
Issued by NWS Grand Forks, ND

Home | Current Version | Previous Version | Graphics & Text | Print | Product List | Glossary On
Versions: 1 2 3 4 5 6 7 8 9 10 11 12 13 14 15 16 17 18 19 20 21 22 23 24 25 26 27 28 29 30 31 32 33 34 35 36 37 38 39 40 41 42 43 44 45 46 47 48 49 50
000
ASUS43 KFGF 300910
RWRFGF
PRAIRIE TO PINES  WEATHER ROUNDUP
NATIONAL WEATHER SERVICE EASTERN NORTH DAKOTA/GRAND FORKS ND
400 AM CDT WED JUL 30 2014

 **SATELLITE DATA USED TO AUGMENT SKY COVER AT AUTOMATED STATIONS**
 *****  WEATHER ACROSS EASTERN NORTH DAKOTA  *****

CITY           SKY/WX    TMP DP  RH WIND       PRES   REMARKS
GRAND FORKS    CLEAR     54  53  97 W5        30.11S
GRAND FRKS AFB CLEAR     56  55  99 W2        30.12S
GRAND FRKS NWS   N/A     57 N/A N/A MISG        N/A
DEVILS LAKE    CLEAR     57  52  82 CALM      30.13S
FARGO          CLEAR     55  52  89 CALM      30.11S
WAHPETON ARPT  SUNNY     52  48  87 W5        30.13S
$$

 ***** WEATHER ACROSS CENTRAL AND WESTERN NORTH DAKOTA  *****

CITY           SKY/WX    TMP DP  RH WIND       PRES   REMARKS
BISMARCK       CLEAR     57  30  35 CALM      30.17S
MINOT          CLOUDY    61  58  90 SW6       30.16S
JAMESTOWN      CLEAR     55  52  89 CALM      30.15S
MINOT AFB      PTCLDY    59  59 100 W6        30.15F
GARRISON         N/A     56  55  97 N3        30.17S
WILLISTON      CLEAR     58  55  90 NE3       30.18S
DICKINSON      CLEAR     53  53 100 N5        30.17S
HETTINGER      CLEAR     56  52  86 CALM      30.16S
$$

 *****  OTHER AIRPORT OBSERVATIONS IN OUR AREA  *****

CITY           SKY/WX    TMP DP  RH WIND       PRES   REMARKS
WALHALLA         N/A     50  50 100 CALM        N/A
GRAFTON AIRPOR FAIR      55  55 100 W5        30.11S
VALLEY CITY AR FAIR      52  52 100 CALM      30.14S
CANDO          FAIR      52  50  93 NW3       30.15S
CAVALIER APRT  FAIR      54  50  87 W5        30.11S
GWINNER        SUNNY     55  54  94 N5        30.15S
SHEYENNE NWR     N/A     50  50  99 CALM      29.95
ROLLA          FAIR      50  50 100 SW7       30.17S
 ***** THE ABOVE OBSERVATIONS ARE NON NWS ARE NOT QUALITY
       CONTROLLED AND MAY MIS-REPORT RAIN FOR SNOW...
$$

  *****  WEATHER ACROSS NORTHERN MINNESOTA  *****

CITY           SKY/WX    TMP DP  RH WIND       PRES   REMARKS
FLAG ISLAND    CLEAR     63  55  77 NW13      30.05S
WARROAD        CLEAR     57  54  88 W5        30.08S
ROSEAU         CLEAR     59  54  82 W8        30.08S
HALLOCK        CLEAR     55  52  88 CALM      30.10S
THF RVR FALLS  CLEAR     59  55  88 NW3       30.11S
BAUDETTE       CLEAR     59  55  87 W6        30.07S
WASKISH        CLEAR     61  55  82 NW6       30.07S
CROOKSTON      CLEAR     54  52  94 NW3       30.12R
$$
  *****  WEATHER ACROSS CENTRAL AND WEST MINNESOTA  *****

CITY           SKY/WX    TMP DP  RH WIND       PRES   REMARKS
FOSSTON        CLEAR     50  48  93 CALM      30.12R
BEMIDJI        CLEAR     55  53  92 W6        30.09S
PARK RAPIDS    CLEAR     53  51  93 CALM      30.10S
ELBOW LAKE     FAIR      55  53  95 W5        30.12S
WADENA         CLEAR     55  54  94 W3        30.10S
DETROIT LAKES  CLEAR     61  54  77 CALM      30.13S
MOORHEAD       CLEAR     57  57 100 CALM      30.12S
FERGUS FALLS   CLEAR     55  54  94 CALM      30.13R
MORRIS MN      CLEAR     52  52 100 W6        30.11S
STAPLES        CLEAR     55  54  94 CALM      30.10S
$$
  *****  WEATHER ELSEWHERE ACROSS MINNESOTA  *****

CITY           SKY/WX    TMP DP  RH WIND       PRES   REMARKS
DULUTH         CLEAR     54  51  90 CALM      30.07R
INTRNTL FALLS  CLEAR     50  48  93 CALM      30.05S
ELY            FOG       46  46 100 CALM      30.07S VSB 1/4
CLOQUET        CLEAR     52  48  87 NW5       30.07S FOG
WHEATON        CLEAR     55  54  94 CALM      30.14S
BRAINERD       CLEAR     53  52  96 CALM      30.08S
HIBBING        PTCLDY    48  46  93 CALM      30.07S FOG
ALEXANDRIA     CLEAR     60  56  86 NW3       30.12F
SAINT CLOUD    CLEAR     57  54  89 NW5       30.08S
MINNEAPOLIS    CLEAR     61  56  83 W3        30.06S
$$

  *****  WEATHER ACROSS SOUTH DAKOTA  *****

CITY           SKY/WX    TMP DP  RH WIND       PRES   REMARKS
SIOUX FALLS    CLEAR     54  52  93 CALM      30.14F
BROOKINGS      NOT AVBL
WATERTOWN      CLEAR     53  50  89 CALM      30.15S
HURON          CLEAR     52  50  93 CALM      30.14S
SISSETON         N/A     52  51  97 CALM      30.12S
ABERDEEN       CLEAR     51  50  96 NW3       30.15S
MITCHELL       CLEAR     53  52  96 NW5       30.15S
PIERRE         PTCLDY    60  56  86 N3        30.15R
MOBRIDGE       PTCLDY    61  56  83 E8        30.14S
RAPID CITY     CLEAR     53  49  86 CALM      30.20S
$$

  *****  SOME WEATHER IN NEARBY STATES *****

CITY           SKY/WX    TMP DP  RH WIND       PRES   REMARKS
GLASGOW MT     CLEAR     62  53  72 E10       30.17F
GREAT FALLS MT PTCLDY    65  44  46 S6        30.16S
CHEYENNE WY    LGT RAIN  55  54  96 NE5       30.32S
SCOTTSBLUFF NE CLOUDY    63  59  87 NE5       30.24F
OMAHA NE       PTCLDY    57  54  89 NW7       30.12F
DES MOINES IA  CLEAR     60  56  86 CALM      30.08F
DAVENPORT IA   CLEAR     54  53  97 SW3       30.05S
CHICAGO IL     PTCLDY    60  53  77 SW5       30.00S
EAU CLAIRE WI  CLEAR     54  54 100 CALM      30.05R FOG
LA CROSSE WI   PTCLDY    59  57  93 CALM      30.04R FOG
$$

  *****  SOME NATIONAL WEATHER *****

CITY           SKY/WX    TMP DP  RH WIND       PRES   REMARKS
LA GUARDIA NY  MOCLDY    67  55  65 NW9       29.97R
RALEIGH NC     PTCLDY    65  59  81 NE5       30.04R
ATLANTA GA     CLEAR     60  53  77 NW6       30.03S
NEW ORLEANS LA PTCLDY    77  66  68 NE13      30.03S
OKLAHOMA CITY  CLOUDY    72  67  84 CALM      30.06S
ALBUQUERQUE NM MOCLDY    68  61  78 NE12      30.21S
SALT LAKE CITY LGT RAIN  66  62  87 SE5       30.17R
LOS ANGELES CA MOCLDY    68  61  78 SW6       29.96S
BOISE ID       PTCLDY    76  52  43 SE12      30.12S
SEATTLE WA     CLEAR     64  54  69 CALM      30.11S
$$

*** WEATHER ACROSS MANITOBA...SASKATCHEWAN AND ONTARIO ***
                ***ONTARIO***

CITY           SKY/WX    TMP DP  RH WIND       PRES   REMARKS
GERALDTON      MOCLDY    52  50  93 W6        29.96F FOG
THUNDER BAY    CLEAR     46  45  93 SW6       30.03S
SIOUX LOOKOUT  NOT AVBL
TORONTO        MOCLDY    59  55  88 S5        29.93R
BIG TROUT LK   CLOUDY    54  48  82 N5        29.99S
PICKLE LAKE    NOT AVBL
DRYDEN         CLEAR     57  55  94 SW5       30.03F
KENORA         PTCLDY    63  54  72 NW8       30.05F
$$
                *** MANITOBA***

CITY           SKY/WX    TMP DP  RH WIND       PRES   REMARKS
BRANDON        CLEAR     52  50  93 NW5       30.14S
DAUPHIN        CLEAR     57  54  88 W9        30.11S
ISLAND LAKE    PTCLDY    54  50  87 CALM      30.05F
PILOT MOUND      N/A     54  50  87 W5          N/A
THE PAS        CLEAR     64  59  82 W5        30.06S
THOMPSON       PTCLDY    52  50  93 CALM      30.06S
WINNIPEG       CLEAR     55  52  88 W9        30.10S
LYNN LAKE      CLEAR     57  52  82 NW3       30.07S
CHURCHILL      CLEAR     52  50  93 S6        30.07S
GILLAM         CLEAR     46  46 100 E2        30.05S
$$
                ***SASKATCHEWAN***

CITY           SKY/WX    TMP DP  RH WIND       PRES   REMARKS
ESTEVAN        PTCLDY    52  50  93 N3        30.18F
KINDERSLEY     PTCLDY    61  57  88 SE10      30.11F
LLOYDMINSTER   CLEAR     63  59  88 SE9       30.09F
PRINCE ALBERT  MOCLDY    55  55 100 E2        30.14R FOG
REGINA         CLEAR     57  55  94 SE6       30.19S
YORKTON        CLEAR     59  55  88 SW5       30.16S
N. BATTLEFORD    N/A     63  59  88 SE10      30.14S
LA RONGE       PTCLDY    54  50  87 SW3       30.11S
SASKATOON      PTCLDY    61  59  94 S3        30.16S
SWIFT CURRENT  PTCLDY    59  55  88 SE9       30.16S
$$
NOTE: THESE ARE AUTOMATED STATIONS WITH LIMITED QUALITY CONTROL
      "FAIR" INDICATES FEW OR NO CLOUDS BELOW 12,000 FEET WITH NO
      SIGNIFICANT WEATHER AND/OR OBSTRUCTIONS TO VISIBILITY.
      SKY/WX - SKY CONDITION AND SIGNIFICANT WEATHER.
      TMP - AIR TEMPERATURE.    DP   - DEWPOINT TEMPERATURE.
      RH  - RELATIVE HUMIDITY.  PRES - PRESSURE.
      HX  - HEAT INDEX.         WCI  - WIND CHILL INDEX.
$



USA.gov is the U.S. government's official web portal to all federal, state and local government web resources and services.